Regional Weather Roundup
Issued by NWS Mt. Holly, NJ

Home | Current Version | Previous Version | Text Only | Print | Product List | Glossary On
Versions: 1 2 3 4 5 6 7 8 9 10 11 12 13 14 15 16 17 18 19 20 21 22 23 24 25 26 27 28 29 30 31 32 33 34 35 36 37 38 39 40 41 42 43 44 45 46 47 48 49 50
000
ASUS41 KPHI 251211
RWRPHI

REGIONAL WEATHER ROUNDUP
NATIONAL WEATHER SERVICE MOUNT HOLLY NJ
800 AM EDT MON MAY 25 2015

NOTE:  "FAIR" INDICATES FEW OR NO CLOUDS BELOW 12,000 FEET WITH NO
SIGNIFICANT WEATHER AND/OR OBSTRUCTIONS TO VISIBILITY.

 * = STATION DOES NOT REPORT PRECIPITATION (E.G. RAIN, SNOW, ETC.)
        OR FOG.

NJZ015>026-251300-
SOUTHERN NEW JERSEY

CITY           SKY/WX    TMP DP  RH WIND       PRES   REMARKS
POMONA         SUNNY     68  58  70 SW12      30.30R
6HR MIN TEMP:  59; 6HR MAX TEMP:  68;

RIO GRANDE*    SUNNY     68  55  64 SW12      30.31R
MILLVILLE      SUNNY     68  60  75 VRB5      30.29R
WRIGHTSTOWN    SUNNY     66  58  77 SW6       30.27R
MOUNT HOLLY    SUNNY     65  58  78 CALM      30.29R
TRENTON        MOSUNNY   64  57  78 S7        30.28R
6HR MIN TEMP:  59; 6HR MAX TEMP:  64;


$$
NJZ001>014-251300-
NORTHERN NEW JERSEY

CITY           SKY/WX    TMP DP  RH WIND       PRES   REMARKS
SUSSEX         CLOUDY    61  52  72 CALM      30.27S
ANDOVER*         N/A     64  57  78 CALM      30.27R
MORRISTOWN     PTSUNNY   63  55  77 S5        30.27S
NEWARK         CLOUDY    65  55  70 S6        30.27S
TETERBORO      CLOUDY    65  54  67 S6        30.26S
CALDWELL       CLOUDY    64  54  69 CALM      30.27S
SOMERVILLE     PTSUNNY   64  55  72 CALM      30.26R
ALLAIRE*       MOSUNNY   63  54  72 SW6       30.29R
TOMS RIVER*    SUNNY    N/A N/A N/A SW8       30.29R

$$
PAZ043-044-047-054-055-060>062-066>071-251300-
EASTERN PENNSYLVANIA

CITY           SKY/WX    TMP DP  RH WIND       PRES   REMARKS
PHILADELPHIA   MOSUNNY   69  59  70 S8        30.28R
6HR MIN TEMP:  63; 6HR MAX TEMP:  69;

NORTH PHILA    SUNNY     67  56  67 SW5       30.30R
BLUE BELL      MOSUNNY   66  59  77 CALM      30.28R
DOYLESTOWN     MOSUNNY   62  57  83 CALM      30.27R
QUAKERTOWN*    PTSUNNY   64  59  82 S3        30.29R
POTTSTOWN      MOSUNNY   64  59  83 CALM      30.29R
LANCASTER      SUNNY     66  61  84 CALM      30.27R
COATESVILLE    SUNNY     64  61  88 SW3       30.29R
READING        MOSUNNY   68  58  70 CALM      30.26R
6HR MIN TEMP:  62; 6HR MAX TEMP:  68;

ALLENTOWN      CLOUDY    65  57  75 CALM      30.27R
6HR MIN TEMP:  58; 6HR MAX TEMP:  65;

MOUNT POCONO   CLOUDY    65  54  67 SW6       30.28R
6HR MIN TEMP:  61; 6HR MAX TEMP:  65;

HAZLETON       CLOUDY    66  55  68 CALM      30.30R
WILKES BARRE   CLOUDY    68  55  63 CALM      30.24R

$$
DEZALL-MDZ008-012-015-019-020-251300-
DELAWARE AND EASTERN MARYLAND

CITY           SKY/WX    TMP DP  RH WIND       PRES   REMARKS
WILMINGTON     SUNNY     68  60  75 S7        30.29R
6HR MIN TEMP:  62; 6HR MAX TEMP:  68;

DOVER          SUNNY     68  63  83 S12       30.26R
GEORGETOWN     SUNNY     68  59  73 SW12      30.31S
6HR MIN TEMP:  59; 6HR MAX TEMP:  68;

EASTON         SUNNY     72  63  73 SW10      30.33R
PATUXENT       SUNNY     69  58  67 SW15G24   30.30R
OCEAN CITY     SUNNY     69  60  73 SW12      30.32S
WALLOPS ISLAND SUNNY     68  61  78 SW8       30.34R
CAMBRIDGE      SUNNY     72  59  64 SW7       30.30R
SALISBURY      SUNNY     67  61  81 SW9       30.32R

$$
PAZ001-021-NYZ056-072-MDZ011-DCZ001-251300-
OTHER NEARBY LOCATIONS

CITY           SKY/WX    TMP DP  RH WIND       PRES   REMARKS
HARRISBURG     SUNNY     68  58  70 E3        30.26R
STATE COLLEGE  SUNNY     61  52  72 CALM      30.25R
WILLIAMSPORT   MOSUNNY   63  53  70 CALM      30.23R
BINGHAMTON     LGT RAIN  61  50  67 S5        30.23R
NEW YORK CITY  CLOUDY    67  54  63 CALM      30.30R
BALTIMORE      MOSUNNY   67  58  72 VRB6      30.28R
WASHINGTON DC  PTSUNNY   71  58  63 SW13      30.29R

$$


USA.gov is the U.S. government's official web portal to all federal, state and local government web resources and services.